RYR2L LGKR-LEGE

Flight info

Callsign RYR2L
Flight time 2h 5m
Altitude 36000
Route TIGRA/N0469F290 DCT SIRGI/N0455F280 DCT SOR DCT TURMO DCT CORSI DCT OLNUL DCT BISBA N975 BGR
Aircraft B738/M-SDE2E3FGHIRWXY/LB1

Departure

Time 2026-05-07 10:52
Airport Corfu Ioannis Kapodistrias International Airport (LGKR)

Arrival

Time 2026-05-07 12:58
Airport Girona-Costa Brava Airport (LEGE)
Time Latitude Longitude Altitude Speed Heading
2026-05-07 10:34 39.60757 19.91273 9 ft 0 kts 349°
2026-05-07 10:48 39.60758 19.91272 9 ft 0 kts 335°
2026-05-07 10:49 39.60778 19.91238 9 ft 9 kts 307°
2026-05-07 10:49 39.60850 19.91174 9 ft 14 kts 349°
2026-05-07 10:49 39.60960 19.91149 9 ft 17 kts 348°
2026-05-07 10:49 39.61071 19.91117 11 ft 14 kts 348°
2026-05-07 10:50 39.61151 19.91099 12 ft 9 kts 349°
2026-05-07 10:50 39.61173 19.91093 13 ft 0 kts 349°
2026-05-07 10:50 39.61194 19.91081 13 ft 6 kts 323°
2026-05-07 10:51 39.61228 19.91004 14 ft 13 kts 290°
2026-05-07 10:51 39.61204 19.90951 13 ft 7 kts 163°
2026-05-07 10:51 39.61176 19.90961 12 ft 0 kts 167°
2026-05-07 10:52 39.61122 19.90976 11 ft 37 kts 168°
2026-05-07 10:52 39.60584 19.91115 8 ft 117 kts 169°
2026-05-07 10:52 39.59577 19.91375 91 ft 168 kts 169°
2026-05-07 10:52 39.58474 19.91695 912 ft 160 kts 159°
2026-05-07 10:53 39.57568 19.92462 1586 ft 161 kts 133°
2026-05-07 10:53 39.56974 19.93694 2179 ft 164 kts 108°
2026-05-07 10:53 39.56806 19.95149 2634 ft 169 kts 85°
2026-05-07 10:53 39.57113 19.96585 3188 ft 167 kts 60°
2026-05-07 10:54 39.57870 19.97707 3673 ft 169 kts 31°
2026-05-07 10:54 39.58980 19.98223 4090 ft 176 kts
2026-05-07 10:54 39.60251 19.98097 4385 ft 196 kts 343°
2026-05-07 10:54 39.61525 19.97254 4752 ft 217 kts 321°
2026-05-07 10:55 39.62448 19.95715 5536 ft 218 kts 293°
2026-05-07 10:55 39.62696 19.93805 6212 ft 224 kts 266°
2026-05-07 10:55 39.62257 19.91825 6731 ft 239 kts 244°
2026-05-07 10:55 39.61554 19.89812 7260 ft 250 kts 250°
2026-05-07 10:56 39.60925 19.87733 8124 ft 250 kts 250°
2026-05-07 10:56 39.60176 19.85692 8710 ft 263 kts 240°
2026-05-07 10:56 39.59081 19.83660 9212 ft 279 kts 235°
2026-05-07 10:56 39.58064 19.81578 10175 ft 274 kts 247°
2026-05-07 10:57 39.57458 19.79191 10558 ft 292 kts 257°
2026-05-07 10:57 39.56937 19.76552 10912 ft 311 kts 257°
2026-05-07 10:57 39.56324 19.73811 11434 ft 324 kts 254°
2026-05-07 10:57 39.55635 19.71035 12109 ft 330 kts 254°
2026-05-07 10:58 39.55161 19.68061 12611 ft 338 kts 274°
2026-05-07 10:58 39.55764 19.65165 13275 ft 337 kts 302°
2026-05-07 10:58 39.57341 19.63049 14074 ft 333 kts 330°
2026-05-07 10:58 39.59520 19.62106 14747 ft 336 kts 355°
2026-05-07 10:59 39.61844 19.62386 15473 ft 338 kts 12°
2026-05-07 10:59 39.64139 19.63162 15939 ft 347 kts 14°
2026-05-07 10:59 39.66543 19.63548 16415 ft 353 kts 356°
2026-05-07 10:59 39.68948 19.62864 16736 ft 365 kts 338°
2026-05-07 11:00 39.71128 19.61152 17270 ft 371 kts 319°
2026-05-07 11:00 39.72820 19.58607 17729 ft 379 kts 307°
2026-05-07 11:00 39.74318 19.55665 17837 ft 395 kts 306°
2026-05-07 11:00 39.75873 19.52743 18298 ft 399 kts 308°
2026-05-07 11:01 39.77524 19.49800 18679 ft 406 kts 308°
2026-05-07 11:01 39.79199 19.46836 19219 ft 407 kts 308°
2026-05-07 11:01 39.80865 19.43868 19676 ft 411 kts 308°
2026-05-07 11:01 39.82552 19.40878 20156 ft 413 kts 308°
2026-05-07 11:02 39.84257 19.37864 20626 ft 416 kts 309°
2026-05-07 11:02 39.85986 19.34813 21063 ft 418 kts 308°
2026-05-07 11:02 39.87701 19.31783 21491 ft 421 kts 308°
2026-05-07 11:02 39.89442 19.28709 21929 ft 423 kts 308°
2026-05-07 11:03 39.91179 19.25640 22313 ft 426 kts 308°
2026-05-07 11:03 39.92949 19.22510 22720 ft 428 kts 308°
2026-05-07 11:03 39.94715 19.19387 23115 ft 429 kts 308°
2026-05-07 11:03 39.96458 19.16299 23565 ft 429 kts 309°
2026-05-07 11:04 39.98241 19.13134 24035 ft 429 kts 309°
2026-05-07 11:04 39.99995 19.10015 24444 ft 429 kts 310°
2026-05-07 11:04 40.01736 19.06910 24920 ft 428 kts 310°
2026-05-07 11:04 40.03376 19.03678 25299 ft 431 kts 306°
2026-05-07 11:05 40.04735 19.00135 25718 ft 437 kts 297°
2026-05-07 11:05 40.05540 18.96320 26043 ft 448 kts 287°
2026-05-07 11:05 40.05879 18.92265 26400 ft 454 kts 281°
2026-05-07 11:05 40.06045 18.88115 26605 ft 458 kts 281°
2026-05-07 11:06 40.06225 18.83944 26919 ft 458 kts 281°
2026-05-07 11:06 40.06412 18.79795 27120 ft 461 kts 281°
2026-05-07 11:06 40.06591 18.75652 27395 ft 462 kts 281°
2026-05-07 11:06 40.06765 18.71483 27693 ft 462 kts 281°
2026-05-07 11:07 40.06937 18.67276 27983 ft 462 kts 281°
2026-05-07 11:07 40.07104 18.63088 28289 ft 462 kts 281°
2026-05-07 11:07 40.07270 18.58900 28592 ft 462 kts 281°
2026-05-07 11:07 40.07431 18.54746 28913 ft 461 kts 281°
2026-05-07 11:08 40.07589 18.50607 29212 ft 460 kts 281°
2026-05-07 11:08 40.07745 18.46453 29524 ft 460 kts 282°
2026-05-07 11:08 40.07900 18.42305 29814 ft 459 kts 282°
2026-05-07 11:08 40.08055 18.38115 30116 ft 458 kts 282°
2026-05-07 11:09 40.08204 18.33983 30454 ft 456 kts 281°
2026-05-07 11:09 40.08353 18.29874 30658 ft 457 kts 281°
2026-05-07 11:09 40.08500 18.25740 30938 ft 457 kts 281°
2026-05-07 11:09 40.08648 18.21580 31186 ft 457 kts 282°
2026-05-07 11:10 40.08791 18.17444 31528 ft 454 kts 282°
2026-05-07 11:10 40.08934 18.13333 31753 ft 455 kts 282°
2026-05-07 11:10 40.09072 18.09262 32055 ft 453 kts 282°
2026-05-07 11:10 40.09211 18.05147 32286 ft 453 kts 282°
2026-05-07 11:11 40.09347 18.01091 32533 ft 452 kts 282°
2026-05-07 11:11 40.09486 17.96966 32755 ft 452 kts 282°
2026-05-07 11:11 40.09620 17.92865 33057 ft 450 kts 282°
2026-05-07 11:11 40.09751 17.88816 33258 ft 450 kts 282°
2026-05-07 11:12 40.09881 17.84769 33488 ft 450 kts 282°
2026-05-07 11:12 40.10012 17.80659 33686 ft 450 kts 282°
2026-05-07 11:12 40.10141 17.76597 33958 ft 449 kts 283°
2026-05-07 11:12 40.10267 17.72559 34211 ft 448 kts 283°
2026-05-07 11:13 40.10392 17.68480 34494 ft 447 kts 283°
2026-05-07 11:13 40.10514 17.64454 34717 ft 447 kts 282°
2026-05-07 11:13 40.10635 17.60432 34960 ft 446 kts 283°
2026-05-07 11:13 40.10757 17.56371 35115 ft 447 kts 283°
2026-05-07 11:14 40.10876 17.52332 35425 ft 445 kts 283°
2026-05-07 11:14 40.10992 17.48340 35613 ft 445 kts 283°
2026-05-07 11:14 40.11109 17.44300 35825 ft 445 kts 283°
2026-05-07 11:14 40.11225 17.40264 36052 ft 444 kts 283°
2026-05-07 11:15 40.11337 17.36231 36273 ft 443 kts 283°
2026-05-07 11:15 40.11448 17.32263 36439 ft 443 kts 282°
2026-05-07 11:15 40.11559 17.28225 36613 ft 443 kts 282°
2026-05-07 11:15 40.11667 17.24221 36808 ft 443 kts 282°
2026-05-07 11:16 40.11774 17.20217 36972 ft 443 kts 282°
2026-05-07 11:16 40.11880 17.16172 37150 ft 443 kts 282°
2026-05-07 11:16 40.11984 17.12194 37306 ft 443 kts 282°
2026-05-07 11:16 40.12088 17.08166 37429 ft 444 kts 282°
2026-05-07 11:17 40.12192 17.04136 37584 ft 444 kts 282°
2026-05-07 11:17 40.12294 17.00112 37755 ft 443 kts 282°
2026-05-07 11:17 40.12388 16.96163 37999 ft 441 kts 283°
2026-05-07 11:17 40.12482 16.92149 38030 ft 443 kts 283°
2026-05-07 11:18 40.12673 16.84057 38026 ft 447 kts 283°
2026-05-07 11:18 40.12839 16.76012 38017 ft 442 kts 284°
2026-05-07 11:19 40.13074 16.72041 38035 ft 429 kts 291°
2026-05-07 11:19 40.13648 16.68253 38051 ft 423 kts 295°
2026-05-07 11:19 40.14982 16.60779 38049 ft 425 kts 295°
2026-05-07 11:20 40.16390 16.53288 38046 ft 423 kts 296°
2026-05-07 11:20 40.17827 16.45872 38047 ft 423 kts 296°
2026-05-07 11:21 40.19284 16.38447 38047 ft 423 kts 296°
2026-05-07 11:21 40.20737 16.31057 38045 ft 423 kts 296°
2026-05-07 11:22 40.22200 16.23609 38047 ft 422 kts 296°
2026-05-07 11:22 40.23660 16.16178 38047 ft 421 kts 296°
2026-05-07 11:23 40.25109 16.08792 38049 ft 422 kts 296°
2026-05-07 11:23 40.26573 16.01334 38038 ft 424 kts 296°
2026-05-07 11:24 40.28026 15.93893 38022 ft 424 kts 296°
2026-05-07 11:24 40.29481 15.86407 38004 ft 422 kts 296°
2026-05-07 11:25 40.30912 15.79000 37992 ft 421 kts 296°
2026-05-07 11:25 40.32345 15.71603 37994 ft 422 kts 296°
2026-05-07 11:26 40.33778 15.64145 37993 ft 422 kts 296°
2026-05-07 11:26 40.35204 15.56711 37994 ft 422 kts 296°
2026-05-07 11:27 40.36626 15.49277 37994 ft 423 kts 296°
2026-05-07 11:27 40.38055 15.41778 37994 ft 425 kts 296°
2026-05-07 11:28 40.39470 15.34299 37990 ft 422 kts 295°
2026-05-07 11:28 40.40870 15.26860 37994 ft 423 kts 296°
2026-05-07 11:29 40.42287 15.19330 37994 ft 426 kts 296°
2026-05-07 11:29 40.43689 15.11838 37991 ft 424 kts 295°
2026-05-07 11:30 40.45083 15.04370 37992 ft 422 kts 295°
2026-05-07 11:30 40.46484 14.96904 37994 ft 423 kts 294°
2026-05-07 11:31 40.47881 14.89425 37992 ft 423 kts 293°
2026-05-07 11:31 40.49280 14.81913 37995 ft 423 kts 292°
2026-05-07 11:32 40.51358 14.70670 37994 ft 425 kts 292°
2026-05-07 11:33 40.52737 14.63117 37992 ft 424 kts 292°
2026-05-07 11:33 40.54105 14.55609 37999 ft 424 kts 292°
2026-05-07 11:34 40.55474 14.48052 37996 ft 425 kts 293°
2026-05-07 11:34 40.56844 14.40489 37994 ft 427 kts 292°
2026-05-07 11:35 40.58201 14.32898 37991 ft 426 kts 291°
2026-05-07 11:35 40.59171 14.25231 37992 ft 429 kts 288°
2026-05-07 11:36 40.60081 14.17478 37995 ft 431 kts 288°
2026-05-07 11:36 40.61016 14.09683 37993 ft 432 kts 288°
2026-05-07 11:37 40.61948 14.01874 37991 ft 430 kts 288°
2026-05-07 11:37 40.62861 13.94177 37992 ft 429 kts 288°
2026-05-07 11:38 40.63785 13.86396 37994 ft 431 kts 288°
2026-05-07 11:38 40.64709 13.78595 37993 ft 430 kts 288°
2026-05-07 11:39 40.65610 13.70882 37991 ft 430 kts 288°
2026-05-07 11:39 40.66518 13.63112 37993 ft 431 kts 288°
2026-05-07 11:40 40.67417 13.55335 37992 ft 431 kts 288°
2026-05-07 11:40 40.68321 13.47539 37995 ft 431 kts 288°
2026-05-07 11:41 40.69212 13.39744 37990 ft 430 kts 288°
2026-05-07 11:41 40.70098 13.31993 37994 ft 431 kts 287°
2026-05-07 11:42 40.70974 13.24227 37992 ft 430 kts 287°
2026-05-07 11:42 40.71848 13.16417 37994 ft 429 kts 287°
2026-05-07 11:43 40.72722 13.08663 37995 ft 431 kts 286°
2026-05-07 11:43 40.73596 13.00872 37991 ft 431 kts 285°
2026-05-07 11:44 40.74470 12.93057 37993 ft 432 kts 285°
2026-05-07 11:44 40.75337 12.85223 37993 ft 432 kts 285°
2026-05-07 11:45 40.76190 12.77421 37992 ft 432 kts 285°
2026-05-07 11:45 40.77041 12.69580 37993 ft 431 kts 285°
2026-05-07 11:46 40.77877 12.61811 37999 ft 431 kts 285°
2026-05-07 11:46 40.78714 12.53996 38008 ft 431 kts 285°
2026-05-07 11:47 40.79545 12.46173 38017 ft 432 kts 285°
2026-05-07 11:47 40.80374 12.38316 38019 ft 432 kts 285°
2026-05-07 11:48 40.81189 12.30521 38019 ft 432 kts 284°
2026-05-07 11:48 40.82006 12.22639 38020 ft 432 kts 284°
2026-05-07 11:49 40.82811 12.14834 38019 ft 432 kts 284°
2026-05-07 11:49 40.83615 12.06998 38020 ft 433 kts 284°
2026-05-07 11:50 40.84419 11.99126 38019 ft 433 kts 284°
2026-05-07 11:50 40.85215 11.91271 38018 ft 433 kts 284°
2026-05-07 11:51 40.86016 11.83423 38014 ft 431 kts 285°
2026-05-07 11:51 40.87264 11.75713 38010 ft 428 kts 289°
2026-05-07 11:52 40.88580 11.68087 38003 ft 428 kts 289°
2026-05-07 11:52 40.89883 11.60403 37998 ft 428 kts 289°
2026-05-07 11:53 40.91175 11.52750 37994 ft 428 kts 289°
2026-05-07 11:53 40.92451 11.45134 37992 ft 428 kts 289°
2026-05-07 11:54 40.93733 11.37457 37993 ft 428 kts 289°
2026-05-07 11:54 40.95007 11.29766 37993 ft 428 kts 288°
2026-05-07 11:55 40.96270 11.22093 37993 ft 429 kts 288°
2026-05-07 11:55 40.97530 11.14418 37993 ft 428 kts 288°
2026-05-07 11:56 40.98788 11.06732 37993 ft 428 kts 288°
2026-05-07 11:56 41.00034 10.99099 37995 ft 427 kts 288°
2026-05-07 11:57 41.01286 10.91419 38003 ft 426 kts 287°
2026-05-07 11:57 41.02525 10.83798 38012 ft 426 kts 287°
2026-05-07 11:58 41.03771 10.76119 38020 ft 427 kts 286°
2026-05-07 11:58 41.05003 10.68465 38020 ft 427 kts 286°
2026-05-07 11:59 41.06233 10.60775 38019 ft 427 kts 286°
2026-05-07 11:59 41.07454 10.53097 38019 ft 427 kts 286°
2026-05-07 12:00 41.08670 10.45416 38019 ft 427 kts 285°
2026-05-07 12:00 41.09876 10.37761 38019 ft 427 kts 285°
2026-05-07 12:01 41.11077 10.30085 38020 ft 428 kts 285°
2026-05-07 12:01 41.12279 10.22352 38019 ft 427 kts 285°
2026-05-07 12:02 41.13472 10.14654 38019 ft 427 kts 285°
2026-05-07 12:02 41.14654 10.06994 38020 ft 427 kts 285°
2026-05-07 12:03 41.15841 9.99268 38020 ft 427 kts 285°
2026-05-07 12:03 41.17019 9.91563 38020 ft 427 kts 285°
2026-05-07 12:04 41.18190 9.83869 38016 ft 428 kts 285°
2026-05-07 12:04 41.19362 9.76140 37993 ft 427 kts 285°
2026-05-07 12:05 41.20527 9.68408 37993 ft 427 kts 285°
2026-05-07 12:05 41.21684 9.60700 37993 ft 427 kts 285°
2026-05-07 12:06 41.22837 9.52975 37993 ft 427 kts 285°
2026-05-07 12:06 41.23988 9.45235 37993 ft 427 kts 285°
2026-05-07 12:07 41.25129 9.37524 37993 ft 427 kts 285°
2026-05-07 12:07 41.26269 9.29766 37993 ft 428 kts 284°
2026-05-07 12:08 41.27394 9.22054 37993 ft 428 kts 284°
2026-05-07 12:08 41.28523 9.14295 37993 ft 428 kts 284°
2026-05-07 12:09 41.29644 9.06557 37993 ft 427 kts 284°
2026-05-07 12:09 41.30752 8.98843 37992 ft 423 kts 284°
2026-05-07 12:10 41.31841 8.91210 37992 ft 419 kts 285°
2026-05-07 12:10 41.32916 8.83643 37990 ft 417 kts 285°
2026-05-07 12:11 41.33881 8.76071 37983 ft 419 kts 283°
2026-05-07 12:11 41.34714 8.68390 37974 ft 420 kts 283°
2026-05-07 12:12 41.35561 8.60718 37966 ft 420 kts 283°
2026-05-07 12:12 41.36406 8.53063 37966 ft 419 kts 283°
2026-05-07 12:13 41.37246 8.45415 37966 ft 419 kts 283°
2026-05-07 12:13 41.38090 8.37702 37966 ft 420 kts 283°
2026-05-07 12:14 41.38918 8.30065 37966 ft 420 kts 282°
2026-05-07 12:14 41.39742 8.22387 37966 ft 420 kts 282°
2026-05-07 12:15 41.40564 8.14706 37966 ft 420 kts 282°
2026-05-07 12:15 41.41386 8.06991 37966 ft 420 kts 282°
2026-05-07 12:16 41.42197 7.99350 37966 ft 420 kts 282°
2026-05-07 12:16 41.43009 7.91636 37966 ft 420 kts 282°
2026-05-07 12:17 41.43813 7.83953 37966 ft 420 kts 282°
2026-05-07 12:17 41.44612 7.76272 37966 ft 420 kts 282°
2026-05-07 12:18 41.45408 7.68562 37966 ft 420 kts 282°
2026-05-07 12:18 41.46192 7.60917 37966 ft 420 kts 282°
2026-05-07 12:19 41.46979 7.53193 37966 ft 420 kts 282°
2026-05-07 12:19 41.47758 7.45495 37966 ft 420 kts 282°
2026-05-07 12:20 41.48534 7.37781 37966 ft 420 kts 282°
2026-05-07 12:20 41.49300 7.30081 37966 ft 421 kts 282°
2026-05-07 12:21 41.50059 7.22368 37966 ft 421 kts 282°
2026-05-07 12:21 41.50814 7.14678 37966 ft 420 kts 282°
2026-05-07 12:22 41.51568 7.06965 37966 ft 419 kts 282°
2026-05-07 12:22 41.52314 6.99284 37966 ft 418 kts 281°
2026-05-07 12:23 41.53055 6.91602 37967 ft 417 kts 281°
2026-05-07 12:23 41.53789 6.83941 37976 ft 418 kts 281°
2026-05-07 12:24 41.54516 6.76297 37985 ft 418 kts 281°
2026-05-07 12:24 41.55241 6.68605 37992 ft 418 kts 281°
2026-05-07 12:25 41.55962 6.60917 37993 ft 418 kts 281°
2026-05-07 12:25 41.56676 6.53234 37993 ft 418 kts 281°
2026-05-07 12:26 41.57383 6.45573 37992 ft 418 kts 281°
2026-05-07 12:26 41.58089 6.37875 37993 ft 418 kts 281°
2026-05-07 12:27 41.58786 6.30177 37993 ft 418 kts 281°
2026-05-07 12:27 41.59473 6.22512 37993 ft 418 kts 281°
2026-05-07 12:28 41.60159 6.14813 37993 ft 418 kts 281°
2026-05-07 12:28 41.60846 6.07069 37993 ft 418 kts 281°
2026-05-07 12:29 41.61523 5.99375 37993 ft 418 kts 281°
2026-05-07 12:29 41.62197 5.91677 37993 ft 418 kts 281°
2026-05-07 12:30 41.62861 5.84018 37993 ft 418 kts 281°
2026-05-07 12:30 41.63525 5.76313 37993 ft 418 kts 281°
2026-05-07 12:31 41.64183 5.68616 37993 ft 418 kts 281°
2026-05-07 12:31 41.64836 5.60899 37993 ft 418 kts 281°
2026-05-07 12:32 41.65485 5.53189 37993 ft 418 kts 281°
2026-05-07 12:32 41.66127 5.45478 37993 ft 418 kts 281°
2026-05-07 12:33 41.67952 5.34255 37995 ft 413 kts 290°
2026-05-07 12:33 41.69661 5.26931 37993 ft 414 kts 290°
2026-05-07 12:34 41.71419 5.19574 37992 ft 413 kts 291°
2026-05-07 12:34 41.73180 5.12283 37993 ft 413 kts 291°
2026-05-07 12:35 41.74939 5.05023 37993 ft 413 kts 291°
2026-05-07 12:35 41.76719 4.97692 37993 ft 413 kts 290°
2026-05-07 12:36 41.78496 4.90395 37993 ft 414 kts 290°
2026-05-07 12:36 41.80285 4.83042 37993 ft 416 kts 289°
2026-05-07 12:37 41.82044 4.75787 37702 ft 407 kts 289°
2026-05-07 12:37 41.82909 4.72208 37123 ft 403 kts 289°
2026-05-07 12:37 41.83767 4.68642 36509 ft 400 kts 289°
2026-05-07 12:38 41.84616 4.65109 35885 ft 397 kts 289°
2026-05-07 12:38 41.85449 4.61638 35216 ft 396 kts 289°
2026-05-07 12:38 41.86292 4.58113 34523 ft 398 kts 289°
2026-05-07 12:38 41.87137 4.54579 33812 ft 404 kts 289°
2026-05-07 12:39 41.87997 4.50974 33060 ft 404 kts 289°
2026-05-07 12:39 41.88839 4.47435 32309 ft 404 kts 289°
2026-05-07 12:39 41.89693 4.43841 31533 ft 409 kts 289°
2026-05-07 12:39 41.90556 4.40201 30725 ft 415 kts 289°
2026-05-07 12:40 41.91427 4.36521 29887 ft 413 kts 289°
2026-05-07 12:40 41.92291 4.32862 29026 ft 417 kts 288°
2026-05-07 12:40 41.93171 4.29123 28118 ft 424 kts 288°
2026-05-07 12:40 41.94053 4.25369 27266 ft 422 kts 288°
2026-05-07 12:41 41.94919 4.21674 26583 ft 415 kts 288°
2026-05-07 12:41 41.95779 4.18006 25961 ft 408 kts 288°
2026-05-07 12:41 41.96622 4.14407 25319 ft 412 kts 288°
2026-05-07 12:41 41.97476 4.10760 24646 ft 407 kts 288°
2026-05-07 12:42 41.98323 4.07131 23979 ft 400 kts 288°
2026-05-07 12:42 41.99141 4.03620 23330 ft 394 kts 288°
2026-05-07 12:42 41.99963 4.00096 22680 ft 398 kts 288°
2026-05-07 12:42 42.00784 3.96569 22014 ft 394 kts 288°
2026-05-07 12:43 42.01592 3.93089 21358 ft 387 kts 288°
2026-05-07 12:43 42.02377 3.89702 20719 ft 382 kts 288°
2026-05-07 12:43 42.03170 3.86280 20073 ft 385 kts 288°
2026-05-07 12:43 42.03959 3.82872 19412 ft 381 kts 288°
2026-05-07 12:44 42.04740 3.79487 18769 ft 375 kts 288°
2026-05-07 12:44 42.05503 3.76177 18155 ft 370 kts 289°
2026-05-07 12:44 42.06265 3.72877 17523 ft 375 kts 289°
2026-05-07 12:44 42.07027 3.69564 16872 ft 369 kts 288°
2026-05-07 12:45 42.07709 3.66300 16216 ft 365 kts 283°
2026-05-07 12:45 42.07960 3.62926 15577 ft 362 kts 271°
2026-05-07 12:45 42.07551 3.59567 14950 ft 369 kts 255°
2026-05-07 12:45 42.06585 3.56351 14297 ft 369 kts 249°
2026-05-07 12:46 42.05533 3.53234 13659 ft 364 kts 249°
2026-05-07 12:46 42.04514 3.50180 13004 ft 360 kts 249°
2026-05-07 12:46 42.03519 3.47123 12264 ft 358 kts 250°
2026-05-07 12:46 42.02541 3.44060 11726 ft 350 kts 250°
2026-05-07 12:47 42.01606 3.41139 11508 ft 335 kts 250°
2026-05-07 12:47 42.00706 3.38314 11187 ft 324 kts 250°
2026-05-07 12:47 41.99845 3.35590 10935 ft 312 kts 250°
2026-05-07 12:47 41.99020 3.32947 10636 ft 302 kts 250°
2026-05-07 12:48 41.98228 3.30400 10493 ft 289 kts 249°
2026-05-07 12:48 41.97442 3.27956 10190 ft 283 kts 249°
2026-05-07 12:48 41.96669 3.25544 9977 ft 276 kts 249°
2026-05-07 12:48 41.95908 3.23204 9987 ft 274 kts 249°
2026-05-07 12:49 41.95142 3.20867 9981 ft 274 kts 249°
2026-05-07 12:49 41.94443 3.18485 10082 ft 268 kts 257°
2026-05-07 12:49 41.94159 3.16046 10038 ft 265 kts 270°
2026-05-07 12:49 41.94342 3.13591 9890 ft 259 kts 284°
2026-05-07 12:50 41.94990 3.11397 9639 ft 257 kts 301°
2026-05-07 12:50 41.96187 3.09601 9312 ft 259 kts 319°
2026-05-07 12:50 41.97630 3.08203 9163 ft 253 kts 322°
2026-05-07 12:50 41.99067 3.06855 8912 ft 256 kts 321°
2026-05-07 12:51 42.00514 3.05385 8640 ft 263 kts 320°
2026-05-07 12:51 42.01985 3.03916 8460 ft 266 kts 321°
2026-05-07 12:51 42.03492 3.02445 8291 ft 268 kts 320°
2026-05-07 12:51 42.04749 3.00612 8030 ft 270 kts 301°
2026-05-07 12:52 42.05658 2.98408 7899 ft 269 kts 295°
2026-05-07 12:52 42.06556 2.96243 7898 ft 265 kts 302°
2026-05-07 12:52 42.07646 2.94190 7591 ft 270 kts 303°
2026-05-07 12:52 42.08728 2.92153 7177 ft 271 kts 304°
2026-05-07 12:53 42.09842 2.90116 6845 ft 268 kts 305°
2026-05-07 12:53 42.10937 2.88099 6444 ft 267 kts 300°
2026-05-07 12:53 42.11711 2.85824 5976 ft 266 kts 281°
2026-05-07 12:53 42.11750 2.83398 5523 ft 263 kts 252°
2026-05-07 12:54 42.10759 2.81398 5125 ft 258 kts 216°
2026-05-07 12:54 42.09150 2.80502 4669 ft 257 kts 191°
2026-05-07 12:54 42.07371 2.80339 4126 ft 257 kts 184°
2026-05-07 12:54 42.05624 2.80253 3870 ft 246 kts 183°
2026-05-07 12:55 42.03928 2.80232 3535 ft 237 kts 180°
2026-05-07 12:55 42.02365 2.80276 3338 ft 217 kts 182°
2026-05-07 12:55 42.00921 2.80049 2981 ft 207 kts 194°
2026-05-07 12:55 41.99535 2.79629 2499 ft 201 kts 194°
2026-05-07 12:56 41.98243 2.79203 2081 ft 185 kts 198°
2026-05-07 12:56 41.97060 2.78723 1671 ft 170 kts 198°
2026-05-07 12:56 41.96017 2.78330 1465 ft 148 kts 198°
2026-05-07 12:56 41.95055 2.77902 1220 ft 145 kts 197°
2026-05-07 12:57 41.94070 2.77567 1040 ft 146 kts 194°
2026-05-07 12:57 41.93103 2.77220 915 ft 143 kts 197°
2026-05-07 12:57 41.92143 2.76839 671 ft 144 kts 198°
2026-05-07 12:57 41.91209 2.76476 474 ft 133 kts 196°
2026-05-07 12:58 41.90457 2.76189 441 ft 82 kts 195°
2026-05-07 12:58 41.90082 2.76051 428 ft 35 kts 193°
2026-05-07 12:58 41.89855 2.75967 420 ft 30 kts 199°
2026-05-07 12:58 41.89679 2.75901 414 ft 20 kts 196°
2026-05-07 12:59 41.89554 2.75868 409 ft 17 kts 167°
2026-05-07 12:59 41.89537 2.75975 410 ft 12 kts 62°
2026-05-07 12:59 41.89580 2.76070 415 ft 11 kts 50°
2026-05-07 12:59 41.89648 2.76119 418 ft 11 kts 14°
2026-05-07 13:00 41.89741 2.76148 420 ft 16 kts 13°
2026-05-07 13:00 41.89864 2.76194 424 ft 16 kts 19°
2026-05-07 13:00 41.89899 2.76291 426 ft 11 kts 112°
2026-05-07 13:00 41.89872 2.76382 427 ft 12 kts 117°
2026-05-07 13:01 41.89852 2.76464 426 ft 3 kts 104°
2026-05-07 13:01 41.89850 2.76476 426 ft 0 kts 105°